This is the latest recevied weather packets stored in our database for station/object DK0KTL-4. If no packets are shown the sender has not sent any weather packets the latest 10 day(s).
| Time | Temp. | Humidity | Pressure | Rain* | Wind** | Luminosity | Snow |
|---|---|---|---|---|---|---|---|
| 1777815192 | 27.22° C | 26% | 1010.7 hPa | 0 mm | - | - | - |
| 1777814591 | 27.78° C | 28% | 1010.8 hPa | 0 mm | - | - | - |
| 1777812789 | 27.78° C | 30% | 1011.1 hPa | 0 mm | - | - | - |
| 1777811888 | 28.33° C | 30% | 1011.4 hPa | 0 mm | - | - | - |
| 1777811588 | 28.33° C | 30% | 1011.3 hPa | 0 mm | - | - | - |
| 1777810988 | 27.78° C | 29% | 1011.3 hPa | 0 mm | - | - | - |
| 1777810687 | 27.78° C | 28% | 1011.4 hPa | 0 mm | - | - | - |
| 1777808585 | 27.78° C | 32% | 1011.8 hPa | 0 mm | - | - | - |
| 1777808285 | 27.78° C | 30% | 1011.9 hPa | 0 mm | - | - | - |
| 1777807084 | 27.22° C | 30% | 1012 hPa | 0 mm | - | - | - |
| 1777806483 | 26.67° C | 32% | 1012.1 hPa | 0 mm | - | - | - |
| 1777805282 | 26.11° C | 31% | 1012.3 hPa | 0 mm | - | - | - |
| 1777804681 | 26.11° C | 32% | 1012.4 hPa | 0 mm | - | - | - |
| 1777804381 | 26.11° C | 30% | 1012.5 hPa | 0 mm | - | - | - |
| 1777804081 | 26.67° C | 35% | 1012.5 hPa | 0 mm | - | - | - |
| 1777803781 | 26.11° C | 30% | 1012.5 hPa | 0 mm | - | - | - |
| 1777803480 | 26.11° C | 31% | 1012.6 hPa | 0 mm | - | - | - |
| 1777802880 | 26.11° C | 29% | 1012.8 hPa | 0 mm | - | - | - |
| 1777801979 | 25.56° C | 35% | 1012.9 hPa | 0 mm | - | - | - |
| 1777801078 | 25° C | 35% | 1013.2 hPa | 0 mm | - | - | - |
| 1777800778 | 24.44° C | 32% | 1013.2 hPa | 0 mm | - | - | - |
| 1777800477 | 24.44° C | 35% | 1013.3 hPa | 0 mm | - | - | - |
| 1777799877 | 24.44° C | 34% | 1013.4 hPa | 0 mm | - | - | - |
| 1777799276 | 24.44° C | 32% | 1013.5 hPa | 0 mm | - | - | - |
| 1777798676 | 24.44° C | 36% | 1013.5 hPa | 0 mm | - | - | - |
* Rain latest hour (hover to see other rain measurements)
** Current wind speed in m/s (hover to see current wind gust speed)